CCM78JG LFPO-LFKJ

Flight info

Callsign CCM78JG
Flight time 1h 21m
Altitude 35000
Route LATRA DCT LAMUT DCT UTUVA DCT TITVA DCT NOQAS DCT OTROT DCT RETNO DCT KOLON DCT OMARD M623 VAREK
Aircraft A320/M-SDE3FGHIRWY/LB1

Departure

Time 2026-04-23 12:20
Airport Paris-Orly Airport (LFPO)

Arrival

Time 2026-04-23 13:41
Airport Ajaccio Napoléon Bonaparte airport (LFKJ)
Time Latitude Longitude Altitude Speed Heading
2026-04-23 12:06 48.72684 2.35728 284 ft 0 kts 81°
2026-04-23 12:13 48.72684 2.35726 286 ft 0 kts 81°
2026-04-23 12:13 48.72684 2.35728 290 ft 0 kts 81°
2026-04-23 12:14 48.72689 2.35629 291 ft 4 kts 161°
2026-04-23 12:14 48.72710 2.35620 292 ft 1 kts 165°
2026-04-23 12:17 48.72670 2.35636 294 ft 10 kts 165°
2026-04-23 12:17 48.72603 2.35611 292 ft 11 kts 243°
2026-04-23 12:17 48.72547 2.35561 288 ft 10 kts 166°
2026-04-23 12:17 48.72468 2.35595 289 ft 13 kts 165°
2026-04-23 12:18 48.72370 2.35636 289 ft 16 kts 165°
2026-04-23 12:18 48.72256 2.35599 290 ft 18 kts 191°
2026-04-23 12:18 48.72130 2.35640 290 ft 19 kts 166°
2026-04-23 12:18 48.72027 2.35763 290 ft 20 kts 121°
2026-04-23 12:19 48.71970 2.35947 291 ft 19 kts 95°
2026-04-23 12:19 48.71994 2.36139 291 ft 20 kts 74°
2026-04-23 12:19 48.72069 2.36554 291 ft 72 kts 74°
2026-04-23 12:19 48.72259 2.37583 289 ft 129 kts 74°
2026-04-23 12:20 48.72541 2.39101 468 ft 156 kts 74°
2026-04-23 12:20 48.72819 2.40550 1037 ft 145 kts 75°
2026-04-23 12:20 48.73124 2.42105 1511 ft 159 kts 75°
2026-04-23 12:20 48.73427 2.43753 2203 ft 164 kts 75°
2026-04-23 12:21 48.73723 2.45431 2903 ft 165 kts 75°
2026-04-23 12:21 48.74027 2.47103 3574 ft 167 kts 79°
2026-04-23 12:21 48.74097 2.48968 3877 ft 190 kts 89°
2026-04-23 12:21 48.74138 2.51118 4149 ft 218 kts 89°
2026-04-23 12:22 48.74189 2.53534 4598 ft 240 kts 89°
2026-04-23 12:22 48.74200 2.56133 5317 ft 247 kts 98°
2026-04-23 12:22 48.73526 2.58483 6217 ft 252 kts 130°
2026-04-23 12:22 48.72055 2.59982 7044 ft 262 kts 153°
2026-04-23 12:23 48.70290 2.60800 7869 ft 269 kts 163°
2026-04-23 12:23 48.68432 2.61385 8673 ft 276 kts 165°
2026-04-23 12:23 48.66536 2.61948 9510 ft 280 kts 165°
2026-04-23 12:23 48.64607 2.62204 10315 ft 288 kts 182°
2026-04-23 12:24 48.62618 2.61543 11004 ft 299 kts 197°
2026-04-23 12:24 48.60727 2.60139 11604 ft 313 kts 205°
2026-04-23 12:24 48.58718 2.58556 11849 ft 336 kts 204°
2026-04-23 12:24 48.56583 2.56910 12289 ft 350 kts 204°
2026-04-23 12:25 48.54394 2.55234 12992 ft 355 kts 204°
2026-04-23 12:25 48.52183 2.53538 13715 ft 359 kts 204°
2026-04-23 12:25 48.49943 2.51817 14397 ft 363 kts 204°
2026-04-23 12:25 48.47686 2.50078 15045 ft 366 kts 204°
2026-04-23 12:26 48.45364 2.48501 15716 ft 366 kts 196°
2026-04-23 12:26 48.42930 2.47364 16412 ft 367 kts 194°
2026-04-23 12:26 48.40475 2.46250 17106 ft 369 kts 194°
2026-04-23 12:26 48.38005 2.45135 17753 ft 372 kts 194°
2026-04-23 12:27 48.35514 2.44012 18409 ft 375 kts 194°
2026-04-23 12:27 48.33003 2.42878 18996 ft 378 kts 194°
2026-04-23 12:27 48.30434 2.42083 19526 ft 377 kts 183°
2026-04-23 12:27 48.27814 2.42025 20087 ft 376 kts 173°
2026-04-23 12:28 48.25246 2.42719 20639 ft 375 kts 161°
2026-04-23 12:28 48.22779 2.43995 21176 ft 376 kts 158°
2026-04-23 12:28 48.20307 2.45326 21743 ft 378 kts 158°
2026-04-23 12:28 48.17825 2.46652 22263 ft 381 kts 158°
2026-04-23 12:29 48.15315 2.47984 22758 ft 384 kts 158°
2026-04-23 12:29 48.12786 2.49318 23286 ft 386 kts 159°
2026-04-23 12:29 48.10244 2.50655 23791 ft 389 kts 158°
2026-04-23 12:29 48.07680 2.52005 24219 ft 391 kts 159°
2026-04-23 12:30 48.05129 2.53309 24612 ft 395 kts 159°
2026-04-23 12:30 48.02511 2.54607 24992 ft 398 kts 160°
2026-04-23 12:30 47.99879 2.55889 25496 ft 397 kts 160°
2026-04-23 12:30 47.97260 2.57156 26002 ft 397 kts 160°
2026-04-23 12:31 47.94614 2.58438 26288 ft 402 kts 160°
2026-04-23 12:31 47.91934 2.59745 26607 ft 407 kts 160°
2026-04-23 12:31 47.89240 2.61067 26941 ft 410 kts 160°
2026-04-23 12:31 47.86518 2.62406 27279 ft 414 kts 160°
2026-04-23 12:32 47.83770 2.63759 27601 ft 417 kts 160°
2026-04-23 12:32 47.81007 2.65117 27949 ft 420 kts 160°
2026-04-23 12:32 47.78214 2.66480 28287 ft 424 kts 160°
2026-04-23 12:32 47.75401 2.67847 28561 ft 429 kts 160°
2026-04-23 12:33 47.72535 2.69238 28721 ft 436 kts 160°
2026-04-23 12:33 47.69636 2.70645 28991 ft 441 kts 160°
2026-04-23 12:33 47.66711 2.72069 29279 ft 444 kts 160°
2026-04-23 12:33 47.63762 2.73507 29552 ft 448 kts 160°
2026-04-23 12:34 47.60784 2.74962 29794 ft 453 kts 160°
2026-04-23 12:34 47.57778 2.76425 30081 ft 456 kts 160°
2026-04-23 12:34 47.54762 2.77883 30360 ft 459 kts 161°
2026-04-23 12:34 47.51702 2.79356 30498 ft 465 kts 161°
2026-04-23 12:35 47.48609 2.80847 30665 ft 469 kts 161°
2026-04-23 12:35 47.45535 2.82327 30907 ft 472 kts 161°
2026-04-23 12:35 47.42409 2.83833 31155 ft 474 kts 161°
2026-04-23 12:35 47.39278 2.85342 31521 ft 473 kts 161°
2026-04-23 12:36 47.36152 2.86847 31892 ft 472 kts 161°
2026-04-23 12:36 47.33031 2.88350 32155 ft 474 kts 162°
2026-04-23 12:36 47.29872 2.89866 32298 ft 480 kts 162°
2026-04-23 12:36 47.26703 2.91381 32747 ft 475 kts 162°
2026-04-23 12:37 47.23585 2.92867 33355 ft 469 kts 162°
2026-04-23 12:37 47.20494 2.94338 33801 ft 466 kts 162°
2026-04-23 12:37 47.17407 2.95810 34162 ft 465 kts 162°
2026-04-23 12:37 47.14332 2.97275 34472 ft 465 kts 162°
2026-04-23 12:38 47.11249 2.98742 34684 ft 467 kts 163°
2026-04-23 12:38 47.08133 3.00140 34903 ft 469 kts 164°
2026-04-23 12:38 47.04997 3.01450 35164 ft 469 kts 165°
2026-04-23 12:38 47.01849 3.02713 35263 ft 468 kts 165°
2026-04-23 12:39 46.95583 3.05184 35275 ft 465 kts 165°
2026-04-23 12:39 46.89331 3.07703 35274 ft 469 kts 165°
2026-04-23 12:40 46.83023 3.10293 35271 ft 472 kts 165°
2026-04-23 12:40 46.76738 3.12878 35266 ft 472 kts 165°
2026-04-23 12:41 46.70367 3.15481 35267 ft 473 kts 165°
2026-04-23 12:41 46.64026 3.18052 35267 ft 473 kts 166°
2026-04-23 12:42 46.57730 3.20599 35264 ft 473 kts 166°
2026-04-23 12:42 46.51386 3.23158 35281 ft 473 kts 165°
2026-04-23 12:43 46.45059 3.25716 35280 ft 472 kts 165°
2026-04-23 12:43 46.38742 3.28266 35255 ft 471 kts 165°
2026-04-23 12:44 46.32424 3.30805 35245 ft 471 kts 166°
2026-04-23 12:44 46.26102 3.33320 35209 ft 472 kts 166°
2026-04-23 12:45 46.19760 3.35844 35204 ft 473 kts 166°
2026-04-23 12:45 46.13404 3.38377 35203 ft 474 kts 166°
2026-04-23 12:46 46.07038 3.40913 35191 ft 476 kts 166°
2026-04-23 12:46 46.00648 3.43453 35199 ft 477 kts 166°
2026-04-23 12:47 45.94247 3.45991 35208 ft 478 kts 167°
2026-04-23 12:47 45.88914 3.48122 35205 ft 479 kts 163°
2026-04-23 12:48 45.82916 3.52301 35207 ft 482 kts 147°
2026-04-23 12:48 45.77320 3.57616 35209 ft 483 kts 147°
2026-04-23 12:49 45.71701 3.62899 35221 ft 483 kts 147°
2026-04-23 12:49 45.66072 3.68179 35210 ft 484 kts 147°
2026-04-23 12:50 45.60432 3.73463 35211 ft 485 kts 147°
2026-04-23 12:50 45.54803 3.78709 35212 ft 486 kts 147°
2026-04-23 12:51 45.49134 3.83984 35217 ft 487 kts 147°
2026-04-23 12:51 45.43460 3.89262 35235 ft 487 kts 147°
2026-04-23 12:52 45.37867 3.94692 35243 ft 487 kts 140°
2026-04-23 12:52 45.33324 4.01760 35240 ft 484 kts 124°
2026-04-23 12:53 45.29384 4.09525 35231 ft 484 kts 124°
2026-04-23 12:53 45.25413 4.17264 35234 ft 485 kts 124°
2026-04-23 12:54 45.21436 4.24998 35254 ft 485 kts 124°
2026-04-23 12:54 45.17463 4.32726 35256 ft 485 kts 124°
2026-04-23 12:55 45.13482 4.40457 35262 ft 485 kts 124°
2026-04-23 12:55 45.09418 4.48066 35255 ft 485 kts 128°
2026-04-23 12:56 45.05040 4.55254 35256 ft 486 kts 131°
2026-04-23 12:56 45.00480 4.62393 35271 ft 486 kts 131°
2026-04-23 12:57 44.96038 4.69485 35260 ft 485 kts 130°
2026-04-23 12:57 44.91619 4.76690 35256 ft 485 kts 129°
2026-04-23 12:58 44.87205 4.83888 35246 ft 485 kts 130°
2026-04-23 12:58 44.82768 4.91063 35241 ft 486 kts 130°
2026-04-23 12:59 44.78325 4.98220 35259 ft 486 kts 130°
2026-04-23 12:59 44.73870 5.05371 35259 ft 485 kts 130°
2026-04-23 13:00 44.69418 5.12505 35258 ft 485 kts 130°
2026-04-23 13:00 44.64959 5.19632 35259 ft 485 kts 130°
2026-04-23 13:01 44.60504 5.26731 35258 ft 485 kts 130°
2026-04-23 13:01 44.56034 5.33823 35269 ft 485 kts 130°
2026-04-23 13:02 44.51602 5.40860 35270 ft 484 kts 130°
2026-04-23 13:02 44.47159 5.47913 35260 ft 483 kts 130°
2026-04-23 13:03 44.42704 5.54940 35239 ft 483 kts 130°
2026-04-23 13:03 44.38257 5.61987 35234 ft 482 kts 127°
2026-04-23 13:04 44.34448 5.69682 35220 ft 481 kts 122°
2026-04-23 13:04 44.30706 5.77410 35249 ft 480 kts 122°
2026-04-23 13:05 44.26950 5.85104 35234 ft 478 kts 122°
2026-04-23 13:05 44.23199 5.92775 35205 ft 480 kts 122°
2026-04-23 13:06 44.17561 6.04317 35207 ft 481 kts 122°
2026-04-23 13:07 44.13779 6.12016 35246 ft 481 kts 122°
2026-04-23 13:07 44.10001 6.19678 35250 ft 479 kts 122°
2026-04-23 13:08 44.06236 6.27283 35248 ft 477 kts 122°
2026-04-23 13:08 44.02498 6.34823 35225 ft 477 kts 122°
2026-04-23 13:09 43.98709 6.42467 35215 ft 478 kts 122°
2026-04-23 13:09 43.94955 6.50009 35240 ft 477 kts 122°
2026-04-23 13:10 43.91160 6.57618 35264 ft 475 kts 122°
2026-04-23 13:10 43.87426 6.65083 35260 ft 473 kts 122°
2026-04-23 13:11 43.83680 6.72547 35263 ft 472 kts 122°
2026-04-23 13:11 43.79919 6.80022 35229 ft 473 kts 123°
2026-04-23 13:12 43.76145 6.87504 35260 ft 474 kts 123°
2026-04-23 13:12 43.72200 6.94786 35291 ft 474 kts 132°
2026-04-23 13:13 43.67140 7.00612 35287 ft 474 kts 142°
2026-04-23 13:13 43.61889 7.06067 35289 ft 473 kts 142°
2026-04-23 13:14 43.56640 7.11545 35256 ft 475 kts 142°
2026-04-23 13:14 43.51350 7.17059 35243 ft 477 kts 142°
2026-04-23 13:15 43.46043 7.22568 35242 ft 479 kts 142°
2026-04-23 13:15 43.40704 7.28081 35125 ft 481 kts 142°
2026-04-23 13:15 43.38015 7.30852 34365 ft 487 kts 142°
2026-04-23 13:16 43.35325 7.33627 33569 ft 490 kts 142°
2026-04-23 13:16 43.32612 7.36424 33038 ft 485 kts 142°
2026-04-23 13:16 43.29915 7.39197 32404 ft 483 kts 142°
2026-04-23 13:16 43.27237 7.41948 31804 ft 481 kts 142°
2026-04-23 13:17 43.24565 7.44690 31193 ft 479 kts 142°
2026-04-23 13:17 43.21897 7.47430 30592 ft 477 kts 142°
2026-04-23 13:17 43.19237 7.50160 29945 ft 476 kts 142°
2026-04-23 13:17 43.16600 7.52861 29365 ft 471 kts 142°
2026-04-23 13:18 43.13979 7.55537 28782 ft 467 kts 142°
2026-04-23 13:18 43.11342 7.58097 28238 ft 464 kts 148°
2026-04-23 13:18 43.08486 7.60090 27744 ft 458 kts 158°
2026-04-23 13:18 43.05524 7.61574 27342 ft 449 kts 160°
2026-04-23 13:19 43.02599 7.63018 26779 ft 444 kts 159°
2026-04-23 13:19 42.99731 7.64444 26293 ft 444 kts 159°
2026-04-23 13:19 42.96946 7.65832 25917 ft 463 kts 159°
2026-04-23 13:19 42.93918 7.67345 25427 ft 461 kts 159°
2026-04-23 13:20 42.90926 7.68843 24932 ft 452 kts 159°
2026-04-23 13:20 42.88076 7.70267 24463 ft 419 kts 159°
2026-04-23 13:20 42.85395 7.71603 24091 ft 407 kts 159°
2026-04-23 13:20 42.82760 7.72915 23800 ft 398 kts 158°
2026-04-23 13:21 42.80182 7.74198 23453 ft 392 kts 158°
2026-04-23 13:21 42.77696 7.75435 23134 ft 384 kts 158°
2026-04-23 13:21 42.75163 7.76695 22804 ft 377 kts 159°
2026-04-23 13:21 42.72717 7.77911 22474 ft 369 kts 159°
2026-04-23 13:22 42.70331 7.79079 21757 ft 365 kts 159°
2026-04-23 13:22 42.67950 7.80215 21234 ft 358 kts 159°
2026-04-23 13:22 42.65591 7.81338 20791 ft 359 kts 159°
2026-04-23 13:22 42.63239 7.82469 20340 ft 359 kts 158°
2026-04-23 13:23 42.60920 7.83593 19893 ft 359 kts 158°
2026-04-23 13:23 42.58544 7.84756 19425 ft 358 kts 157°
2026-04-23 13:23 42.56234 7.85891 18993 ft 358 kts 157°
2026-04-23 13:23 42.53888 7.87043 18530 ft 358 kts 158°
2026-04-23 13:24 42.51545 7.88189 18051 ft 357 kts 158°
2026-04-23 13:24 42.49215 7.89330 17609 ft 355 kts 157°
2026-04-23 13:24 42.46889 7.90471 17159 ft 354 kts 157°
2026-04-23 13:24 42.44589 7.91596 16724 ft 352 kts 158°
2026-04-23 13:25 42.42286 7.92716 16289 ft 351 kts 157°
2026-04-23 13:25 42.39996 7.93828 15868 ft 350 kts 157°
2026-04-23 13:25 42.37708 7.94938 15453 ft 349 kts 157°
2026-04-23 13:25 42.35426 7.96044 14998 ft 348 kts 157°
2026-04-23 13:26 42.33166 7.97206 14587 ft 346 kts 152°
2026-04-23 13:26 42.31126 7.98867 14169 ft 341 kts 139°
2026-04-23 13:26 42.29417 8.01039 13737 ft 334 kts 126°
2026-04-23 13:26 42.27926 8.03431 13330 ft 331 kts 126°
2026-04-23 13:27 42.26442 8.05794 12915 ft 329 kts 126°
2026-04-23 13:27 42.24966 8.08135 12496 ft 327 kts 125°
2026-04-23 13:27 42.23502 8.10467 12096 ft 325 kts 125°
2026-04-23 13:27 42.22038 8.12771 11753 ft 320 kts 128°
2026-04-23 13:28 42.20623 8.14988 11502 ft 303 kts 127°
2026-04-23 13:28 42.19260 8.17081 11256 ft 296 kts 125°
2026-04-23 13:28 42.17941 8.19194 10918 ft 295 kts 126°
2026-04-23 13:28 42.16643 8.21338 10549 ft 295 kts 123°
2026-04-23 13:29 42.15323 8.23452 10184 ft 294 kts 125°
2026-04-23 13:29 42.14006 8.25552 9795 ft 292 kts 124°
2026-04-23 13:29 42.12708 8.27595 9396 ft 282 kts 125°
2026-04-23 13:29 42.11448 8.29536 9010 ft 270 kts 124°
2026-04-23 13:30 42.10239 8.31418 8611 ft 260 kts 126°
2026-04-23 13:30 42.09107 8.33254 8232 ft 251 kts 125°
2026-04-23 13:30 42.08018 8.35038 7863 ft 241 kts 126°
2026-04-23 13:30 42.06993 8.36758 7597 ft 229 kts 126°
2026-04-23 13:31 42.06008 8.38414 7293 ft 225 kts 126°
2026-04-23 13:31 42.05039 8.40027 7009 ft 224 kts 129°
2026-04-23 13:31 42.03960 8.41541 6721 ft 224 kts 132°
2026-04-23 13:31 42.02857 8.43003 6414 ft 222 kts 132°
2026-04-23 13:32 42.01756 8.44459 6107 ft 221 kts 133°
2026-04-23 13:32 42.00667 8.45912 5800 ft 220 kts 133°
2026-04-23 13:32 41.99591 8.47369 5496 ft 219 kts 133°
2026-04-23 13:32 41.98522 8.48831 5199 ft 220 kts 133°
2026-04-23 13:33 41.97452 8.50303 4901 ft 221 kts 133°
2026-04-23 13:33 41.96380 8.51789 4591 ft 221 kts 133°
2026-04-23 13:33 41.95325 8.53264 4272 ft 216 kts 132°
2026-04-23 13:33 41.94298 8.54717 3991 ft 214 kts 133°
2026-04-23 13:34 41.93285 8.56180 3738 ft 214 kts 133°
2026-04-23 13:34 41.92280 8.57658 3486 ft 214 kts 133°
2026-04-23 13:34 41.91288 8.59151 3228 ft 215 kts 133°
2026-04-23 13:34 41.90306 8.60657 3047 ft 214 kts 133°
2026-04-23 13:35 41.89377 8.62180 2999 ft 205 kts 120°
2026-04-23 13:35 41.88958 8.63965 3006 ft 199 kts 100°
2026-04-23 13:35 41.88763 8.65792 3008 ft 198 kts 97°
2026-04-23 13:35 41.88600 8.67623 3009 ft 197 kts 97°
2026-04-23 13:36 41.88449 8.69458 3012 ft 198 kts 92°
2026-04-23 13:36 41.88770 8.71204 3031 ft 194 kts 53°
2026-04-23 13:36 41.89660 8.72543 3110 ft 191 kts 43°
2026-04-23 13:36 41.90643 8.73749 3064 ft 191 kts 40°
2026-04-23 13:37 41.91754 8.74709 2970 ft 190 kts 27°
2026-04-23 13:37 41.92937 8.75492 2838 ft 190 kts 24°
2026-04-23 13:37 41.94118 8.76221 2688 ft 188 kts 23°
2026-04-23 13:37 41.95304 8.76929 2407 ft 182 kts 23°
2026-04-23 13:38 41.96413 8.77616 2143 ft 175 kts 24°
2026-04-23 13:38 41.97475 8.78313 1900 ft 164 kts 26°
2026-04-23 13:38 41.98457 8.79009 1807 ft 158 kts 30°
2026-04-23 13:38 41.99207 8.80053 1477 ft 155 kts 69°
2026-04-23 13:39 41.99233 8.81425 1240 ft 149 kts 115°
2026-04-23 13:39 41.98560 8.82407 930 ft 144 kts 159°
2026-04-23 13:39 41.97604 8.82560 887 ft 140 kts 187°
2026-04-23 13:39 41.96645 8.82387 848 ft 138 kts 191°
2026-04-23 13:40 41.96018 8.82223 775 ft 139 kts 194°
2026-04-23 13:40 41.94798 8.81723 493 ft 135 kts 206°
2026-04-23 13:40 41.94219 8.81381 367 ft 133 kts 207°
2026-04-23 13:40 41.93390 8.80862 158 ft 131 kts 206°
2026-04-23 13:41 41.92582 8.80363 28 ft 124 kts 206°
2026-04-23 13:41 41.91981 8.79990 19 ft 66 kts 205°
2026-04-23 13:41 41.91615 8.79764 20 ft 51 kts 205°
2026-04-23 13:41 41.91340 8.79590 21 ft 31 kts 204°
2026-04-23 13:42 41.91241 8.79457 23 ft 19 kts 287°
2026-04-23 13:42 41.91350 8.79361 26 ft 18 kts 335°
2026-04-23 13:42 41.91479 8.79346 26 ft 19 kts 17°
2026-04-23 13:42 41.91592 8.79415 26 ft 18 kts 26°
2026-04-23 13:43 41.91735 8.79505 28 ft 22 kts 25°
2026-04-23 13:43 41.91854 8.79579 29 ft 17 kts 25°
2026-04-23 13:43 41.91921 8.79612 26 ft 6 kts 348°
2026-04-23 13:43 41.91946 8.79581 29 ft 4 kts 333°
2026-04-23 13:44 41.91957 8.79577 27 ft 0 kts 341°